Meteo Giornale » Osservazioni meteo Grecia » Ioannina

ore: 11:50 - Osservazioni Meteo Ioannina
Lat. 39° 42' N Lon. 20° 49' E Alt. 476 metri s.l.m.

poco_nuvoloso

30 °C

Poco Nuvoloso

Temp. 24 Ore

19 °C

36 °C

Est/Sud-Est

7.4 Km/h

Dew point 22 °C

Umidità 62 %

Visibilità  10 Km

Il sole sorge alle ore 07:05

Il sole tramonta alle ore 20:07

Data e Ora Cielo e Fenomeni T °C DP °C Um. % Pres. hPa Vis. km Vento km/h
Oggi h: 11:50 poco_nuvoloso Poco Nuvoloso 30 22 62 1019 10 E/SE 7.4
Oggi h: 11:20 poco_nuvoloso Poco Nuvoloso 28 21 65 1019 10 N 5.5
Oggi h: 10:50 sereno Sereno 26 22 78 1019 10 N 3.7
Oggi h: 10:20 sereno Sereno 25 22 83 1019 10 N 3.7
Oggi h: 09:50 poco_nuvoloso Poco Nuvoloso 24 22 88 1019 10 N 1.8
Oggi h: 09:20 poco_nuvoloso Poco Nuvoloso 23 22 94 1019 10 N 3.7
Oggi h: 08:50 poco_nuvoloso Poco Nuvoloso 22 22 100 1019 10 N 1.8
Oggi h: 08:20 poco_nuvoloso Poco Nuvoloso 20 20 100 1019 10 N 1.8
Oggi h: 07:50 poco_nuvoloso Poco Nuvoloso 19 19 100 1018 6 N 3.7
Oggi h: 07:20 nuvoloso Nuvoloso 19 19 100 1018 6 N 3.7
Oggi h: 06:50 foschia Foschia 19 19 100 1018 5 N 0
Ieri h: 23:50 poco_nuvoloso Poco Nuvoloso 21 21 100 1018 10 N 1.8
Ieri h: 23:20 poco_nuvoloso Poco Nuvoloso 22 22 100 1018 10 N 3.7
Ieri h: 22:50 poco_nuvoloso Poco Nuvoloso 22 22 100 1018 10 N 3.7
Ieri h: 22:20 poco_nuvoloso Poco Nuvoloso 22 22 100 1018 10 N 3.7
Ieri h: 21:50 poco_nuvoloso Poco Nuvoloso 22 22 100 1018 10 N 1.8
Ieri h: 21:20 poco_nuvoloso Poco Nuvoloso 23 22 94 1018 10 N 0
Ieri h: 20:50 poco_nuvoloso Poco Nuvoloso 22 22 100 1018 10 N 0
Ieri h: 20:20 poco_nuvoloso Poco Nuvoloso 24 20 78 1017 10 N 3.7
Ieri h: 19:50 poco_nuvoloso Poco Nuvoloso 24 20 78 1017 10 N 3.7
Ieri h: 19:20 poco_nuvoloso Poco Nuvoloso 24 21 83 1017 10 E/SE 7.4
Ieri h: 18:50 nuvoloso Nuvoloso 24 22 88 1017 10 SE 9.3
Ieri h: 18:20 nuvoloso_temporali Temporale 22 22 100 1017 10 E 9.3
Ieri h: 17:50 nuvoloso_temporali Temporale 22 21 94 1016 8 O/NO 22.2
Ieri h: 17:20 nuvoloso_temporali Temporale 32 20 49 1015 9 N 3.7
Ieri h: 16:50 nuvoloso_temporali Temporale nelle vicinanze 33 18 41 1015 10 E 7.4
Ieri h: 16:20 nuvoloso Nuvoloso 35 16 32 1015 10 E 13
Ieri h: 15:50 nuvoloso Nuvoloso 35 19 39 1016 10 E 11.1
Ieri h: 15:20 poco_nuvoloso Poco Nuvoloso 36 18 34 1016 10 N 5.5
Ieri h: 14:50 poco_nuvoloso Poco Nuvoloso 34 18 38 1016 10 N 7.4
Ieri h: 14:20 poco_nuvoloso Poco Nuvoloso 34 18 38 1016 10 N 5.5
Ieri h: 13:50 poco_nuvoloso Poco Nuvoloso 33 18 41 1016 10 N/NE 7.4
Ieri h: 13:20 poco_nuvoloso Poco Nuvoloso 33 19 43 1017 10 N 5.5